THOR BURNER 2 R/B, 3271

Orbit data source: Space-Track

THOR BURNER 2 R/B, 3271 is space debris in SSO originally from a launch on Thu, 23 May 1968 UTC launched from the Air Force Western Test Range (AFWTR). Debris objects in space refer to the collection of defunct objects orbiting the Earth. Examples of debris include non-operational satellites, rocket bodies, and fragments generated from explosions, collisions, or faulty payload assembly.

Loading next visibility...
Identifier
3271, 1968-042B
Orbit
SSO
Country
Flag of USUS
Related business
Manufacturer
Thiokol/TE
Mission
Spacecraft
Bus & Motor
STAR 37, Unknown motor
Mass
154 kg wet, 154 kg dry
Launch date (UTC)
1968-05-23 (58 years ago)
Launch vehicle
Unknown
Launch site
Air Force Western Test Range (AFWTR)
Object type
Payload
Rocket body
Debris
Shape & HBR
Unknown
Radar Cross Section
Large (>1 m²)

Expand to show TLE details & history
Last TLE update: 4 hours ago

TLE from 4 hours ago
0 THOR BURNER 2 R/B
1  3271U 68042B   26145.48372087  .00000089  00000-0  63858-4 0  9991
2  3271  98.5709 320.5636 0050382 255.3457 104.2129 14.17622269993603
Epoch: 2026-05-25T11:36Z
TLE epoch observation values (Epoch: 2026-05-25T11:36:33.483Z)
Latitude
-0.00009°
Longitude
-96.64676°
Altitude
845.415 km
Speed
7.425 km/s
True Right ascension
21h 22m 15s
True Declination
0° 00' 00"
Sunlit
Object was in daylight at epoch
Visualization orbit readout
Latitude
Unknown
Longitude
Unknown
Altitude
Unknown
Speed
Unknown
Apparent Right ascension
Unknown
Apparent Declination
Unknown
Sunlit
N/A
Visualization observer readout
Local Sidereal Time
01:12:03
Azimuth
Unknown
Elevation
Unknown
Doppler factor
Unknown
Orbital elements
Apogee altitude
866.879 km
Perigee altitude
794.242 km
Semi-major axis
7,208.697 km
Eccentricity
0.00504
Inclination
98.5709°
RAAN
320.5636°
Arg. of periapsis
255.3457°
True anomaly
104.77169°
Mean anomaly
104.2129°
Eccentric anomaly
104.49238°
Mean motion
3.54616 °/min
Orbital period
101.52 mins
BSTAR
0.000063858
Loading maneuver chart data...
Computing Atmospheric mass density...
Loading historical data...
Loading historical data...
Loading historical data...
Loading historical data...
Loading historical data...
Loading historical data...
Loading historical data...
Other satellites on launch #42 in the year 1968 (1968-05-23 UTC)

Documentation

Showing up to 5 results
|